Location: Cucq
(50.4773°N, 1.6202°E)
Time: 23:22:25
(UTC+00:00)

Okean 2 Rocket - Pass Details

Date: 07 August 2020
Orbit: 616 x 642 km, 82.5° (Epoch: 23 September)

Event Time Altitude Azimuth Distance (km) Brightness Sun altitude
Exits shadow 00:41:46 45° 122° (ESE) 863 3.6 -22.5°
Maximum altitude 00:42:25 49° 94° (E) 818 3.6 -22.5°
Drops below altitude 10° 00:46:46 10° 20° (NNE) 2,035 6.8 -22.4°
Sets 00:49:04 0° 15° (NNE) 2,952 8.1 -22.3°
